Wakefield, VA

4:14 PM EST on December 14, 2019 (GMT -0500)
Wakefield Municipal

Weather History for KAKQ - October, 2019

Change the Weather History Date:

Thursday, October 31, 2019

  Actual Average (KJGG) Record (KJGG)
Temperature  
Mean Temperature 70 °F -  
Max Temperature 82 °F 66 °F 82 °F (1961)
Min Temperature 57 °F 44 °F 29 °F (1980)
Cooling Degree Days 6    
Growing Degree Days 20 (Base 50)    
Moisture  
Dew Point 67 °F    
Average Humidity 80    
Maximum Humidity 93    
Minimum Humidity 62    
Precipitation  
Precipitation 0.13 in - - ()
Sea Level Pressure  
Sea Level Pressure 29.87 in    
Wind  
Wind Speed 7 mph (SSW)    
Max Wind Speed 22 mph    
Max Gust Speed 37 mph    
Visibility 8 miles    
Events Rain    
Averages and records for this station are not official NWS values.
T = Trace of Precipitation, MM = Missing Value Source: NWS Daily Summary

Daily Weather History Graph

Daily Weather History Graph

Search for Another Location

Airport or City:

Astronomy

Oct. 31, 2019 Rise Set
Actual Time 7:30 AM EDT 6:11 PM EDT
Civil Twilight 7:03 AM EDT 6:38 PM EDT
Nautical Twilight 6:33 AM EDT 7:09 PM EDT
Astronomical Twilight 6:03 AM EDT 7:39 PM EDT
Moon 11:13 AM EDT (10/31) 9:10 PM EDT (10/31)
Length of Visible Light 11h 34m
Length of Day
10h 41m
Waxing Crescent, 15% of the Moon is Illuminated
Oct 31
Waxing Crescent
Nov 4
First Quarter
Nov 12
Full
Nov 19
Last Quarter
Nov 26
New

Hourly Weather History & Observations

Time (EDT) Temp. Heat Index Dew Point Humidity Pressure Visibility Wind Dir Wind Speed Gust Speed Precip Events Conditions
12:54 AM 66.0 °F - 64.0 °F 93% 30.06 in 10.0 mi Calm Calm - N/A   Clear
1:54 AM 66.9 °F - 64.0 °F 90% 30.04 in 9.0 mi SSE 4.6 mph - N/A   Clear
2:54 AM 66.9 °F - 64.9 °F 93% 30.03 in 7.0 mi South 5.8 mph - 0.00 in   Mostly Cloudy
3:54 AM 68.0 °F - 66.0 °F 93% 30.01 in 8.0 mi Variable 3.5 mph - N/A   Mostly Cloudy
4:08 AM 68.0 °F - 66.0 °F 93% 30.01 in 7.0 mi Variable 4.6 mph - N/A   Scattered Clouds
4:54 AM 68.0 °F - 66.0 °F 93% 29.99 in 7.0 mi Calm Calm - N/A   Scattered Clouds
5:54 AM 68.0 °F - 66.0 °F 93% 30.00 in 7.0 mi Variable 3.5 mph - N/A   Overcast
6:54 AM 69.1 °F - 66.9 °F 93% 29.99 in 9.0 mi South 6.9 mph - N/A   Overcast
7:54 AM 70.0 °F - 66.9 °F 90% 29.99 in 9.0 mi Variable 3.5 mph - N/A   Overcast
8:54 AM 71.1 °F - 68.0 °F 90% 29.98 in 10.0 mi South 8.1 mph - N/A   Clear
10:54 AM 77.0 °F - 68.0 °F 74% 29.96 in 10.0 mi SSW 9.2 mph 18.4 mph N/A   Partly Cloudy
11:49 AM 80.6 °F 83.2 °F 68.0 °F 65% 29.93 in 10.0 mi SSW 11.5 mph 19.6 mph N/A   Mostly Cloudy
11:54 AM 79.0 °F - 68.0 °F 69% 29.93 in 10.0 mi SSW 11.5 mph 23.0 mph N/A   Mostly Cloudy
12:26 PM 79.0 °F - 68.0 °F 69% 29.91 in 10.0 mi SSW 11.5 mph 20.7 mph N/A   Overcast
12:54 PM 81.0 °F 84.1 °F 69.1 °F 67% 29.88 in 10.0 mi South 10.4 mph 20.7 mph N/A   Mostly Cloudy
1:04 PM 81.0 °F 83.8 °F 68.0 °F 65% 29.88 in 10.0 mi South 9.2 mph 19.6 mph N/A   Unknown
1:54 PM 82.0 °F 84.9 °F 68.0 °F 62% 29.84 in 10.0 mi South 11.5 mph 23.0 mph N/A   Unknown
2:54 PM 81.0 °F 84.1 °F 69.1 °F 67% 29.82 in 10.0 mi SSW 10.4 mph 20.7 mph N/A   Overcast
3:54 PM 82.0 °F 85.5 °F 69.1 °F 65% 29.79 in 10.0 mi Variable 6.9 mph - N/A   Mostly Cloudy
4:54 PM 82.0 °F 85.5 °F 69.1 °F 65% 29.76 in 10.0 mi South 11.5 mph - N/A   Clear
5:54 PM 80.1 °F 82.9 °F 69.1 °F 69% 29.75 in 10.0 mi South 9.2 mph 24.2 mph N/A   Overcast
6:54 PM 78.1 °F - 69.1 °F 74% 29.73 in 10.0 mi South 12.7 mph 24.2 mph N/A   Partly Cloudy
7:54 PM 78.1 °F - 69.1 °F 74% 29.72 in 10.0 mi South 12.7 mph 19.6 mph N/A   Mostly Cloudy
8:54 PM 78.1 °F - 69.1 °F 74% 29.72 in 10.0 mi South 12.7 mph 24.2 mph N/A   Overcast
10:45 PM 73.9 °F - 70.0 °F 87% 29.71 in 4.0 mi South 9.2 mph - 0.02 in Rain Light Rain
10:54 PM 73.9 °F - 70.0 °F 87% 29.70 in 5.0 mi South 9.2 mph 20.7 mph 0.03 in Rain Light Rain
11:03 PM 73.9 °F - 70.0 °F 87% 29.69 in 4.0 mi South 10.4 mph 20.7 mph 0.01 in Rain Light Rain
11:44 PM 73.9 °F - 70.0 °F 87% 29.75 in 9.0 mi WSW 12.7 mph 23.0 mph 0.03 in Rain Light Rain
11:54 PM 59.0 °F - 55.9 °F 90% 29.78 in 0.8 mi West 18.4 mph 36.8 mph 0.10 in Rain Heavy Rain
11:56 PM 57.9 °F - 55.0 °F 90% 29.79 in 0.8 mi West 21.9 mph 36.8 mph 0.02 in Rain Heavy Rain